Torna al catalogo

COSMOS 1531

AttivoNavigazionePO
NORAD 14624·PAYLOAD·🇷🇺 Russia

Lanciato Jan 11, 1984 da Plesetsk Cosmodrome

Loading…

Prossimi Passaggi (prossime 24 ore)

TLE

AggiornatoSource: Space-Track

Epoca: Sep 14, 2026, 18:27 UTC

1 14624U 84003A   26257.76901954  .00000043  00000-0  31052-4 0  9997
2 14624  82.9280  71.3424 0018770 218.2193 152.2907 13.72422388136789

Traccia COSMOS 1531 in tempo reale con AllMySat

Download on the App Store